Regional Weather Roundup
Issued by NWS

Home | Current Version | Previous Version | Graphics & Text | Print | Product List | Glossary On
Versions: 1 2 3 4 5 6 7 8 9 10 11 12 13 14 15 16 17 18 19 20 21 22 23 24 25 26 27 28 29 30 31 32 33 34 35 36 37 38 39 40 41 42 43 44 45 46 47 48 49 50
000
ASUS43 KLSX 290507
RWRMO

WEATHER SUMMARY FOR MISSOURI
NATIONAL WEATHER SERVICE SPRINGFIELD MO
1200 AM CDT TUE JUL 29 2014

NOTE: "FAIR" INDICATES FEW OR NO CLOUDS BELOW 12,000 FEET WITH NO
       SIGNIFICANT WEATHER AND/OR OBSTRUCTIONS TO VISIBILITY.
       CURRENT SKY AND/OR WEATHER CONDITIONS ARE NOT AVAILABLE FOR
       CHILLICOTHE AND FARMINGTON.

MOZ001>031-035>038-043-044-053-054-290600-
...NORTHERN AND WESTERN MISSOURI...

CITY           SKY/WX    TMP DP  RH WIND       PRES   REMARKS
KANSAS CTY INT CLEAR     65  59  81 NW6       30.18S
KANSAS C DTWN  CLEAR     70  61  73 NW3       30.16S
LEE`S SUMMIT   PTCLDY    68  58  70 CALM      30.18S
ST JOSEPH      CLEAR     60  57  89 CALM      30.18R
CHILLICOTHE      N/A     65  60  84 CALM      30.17R
KIRKSVILLE     PTCLDY    59  57  93 CALM      30.16S

$$
MOZ066>068-077>081-088>096-101>105-290600-
...SOUTHWEST MISSOURI...

CITY           SKY/WX    TMP DP  RH WIND       PRES   REMARKS
SPRINGFIELD    CLEAR     68  58  70 NE6       30.16R
JOPLIN         CLEAR     67  59  75 NE3       30.16S

$$
MOZ032>034-039>042-045>050-055>058-069>072-290600-
...CENTRAL MISSOURI...

CITY           SKY/WX    TMP DP  RH WIND       PRES   REMARKS
COLUMBIA       CLEAR     61  55  81 NE3       30.16R
JEFFERSON CITY CLEAR     66  54  65 NE3       30.15S
ROLLA          CLEAR     58  52  80 CALM      30.15R
SEDALIA        CLEAR     64  56  75 CALM      30.17R
WHITEMAN AFB   CLEAR     62  50  66 CALM      30.16S
OSAGE BEACH    CLEAR     63  54  72 CALM      30.16S

$$
MOZ051-052-059>065-290600-
...EAST CENTRAL MISSOURI...

CITY           SKY/WX    TMP DP  RH WIND       PRES   REMARKS
ST LOUIS INTL  CLEAR     63  55  75 NW6       30.14R
SPIRIT OF STL  CLEAR     58  55  90 CALM      30.13R
ST CHARLES     CLEAR     59  54  83 NW5       30.13R

$$
MOZ072>076-082>087-097>100-106>115-290600-
...SOUTH CENTRAL AND SOUTHEAST MISSOURI...

CITY           SKY/WX    TMP DP  RH WIND       PRES   REMARKS
CAPE GIRARDEAU CLEAR     65  58  78 N5        30.10S
FARMINGTON     CLEAR     63  54  72 NW3       30.16R
POPLAR BLUFF   CLEAR     67  58  72 N6        30.10R
WEST PLAINS    CLEAR     64  57  78 NE5       30.16S

$$



USA.gov is the U.S. government's official web portal to all federal, state and local government web resources and services.